Terug naar catalogus

COSMOS 2251 DEB

ActiefLEO
NORAD 33830·DEBRIS·🇷🇺 Russia

Gelanceerd Jun 16, 1993 vanaf Plesetsk Cosmodrome

Loading…

Volgende Passages (komende 24 uur)

TLE

VersSource: Space-Track

Epoch: Sep 14, 2026, 09:55 UTC

1 33830U 93036BX  26257.41362633  .00003974  00000-0  52586-3 0  9990
2 33830  74.0309  48.4310 0040605  99.4068 291.7388 14.79717165935466

Volg COSMOS 2251 DEB in realtime met AllMySat

Download on the App Store